This is the latest recevied weather packets stored in our database for station/object WB4ROX. If no packets are shown the sender has not sent any weather packets the latest 1 day(s).
| Time | Temp. | Humidity | Pressure | Rain* | Wind** | Luminosity | Snow |
|---|---|---|---|---|---|---|---|
| 1778009888 | 17.22° C | 42% | 1017.9 hPa | 0 mm | 0 m/s | 518 W/m² | - |
| 1778009587 | 17.22° C | 43% | 1018.2 hPa | 0 mm | 0.89 m/s, 98° | 500 W/m² | - |
| 1778009285 | 17.22° C | 41% | 1018.3 hPa | 0 mm | 0.45 m/s, 92° | 629 W/m² | - |
| 1778008982 | 17.22° C | 40% | 1018.2 hPa | 0 mm | 0.89 m/s, 1° | 647 W/m² | - |
| 1778008680 | 17.22° C | 41% | 1018.2 hPa | 0 mm | 0.89 m/s, 179° | 481 W/m² | - |
| 1778008378 | 17.22° C | 42% | 1018.1 hPa | 0 mm | 0.45 m/s, 95° | 315 W/m² | - |
| 1778008074 | 17.78° C | 41% | 1018.4 hPa | 0 mm | 0.89 m/s, 276° | 441 W/m² | - |
| 1778007769 | 17.22° C | 41% | 1018.3 hPa | 0 mm | 0.89 m/s, 66° | 499 W/m² | - |
| 1778007466 | 17.78° C | 41% | 1018.2 hPa | 0 mm | 0.45 m/s, 104° | 467 W/m² | - |
| 1778007162 | 17.22° C | 40% | 1018.5 hPa | 0 mm | 0.45 m/s, 57° | 525 W/m² | - |
| 1778006858 | 17.22° C | 40% | 1018.6 hPa | 0 mm | 1.79 m/s, 299° | 667 W/m² | - |
| 1778006556 | 17.78° C | 38% | 1018.6 hPa | 0 mm | 0.89 m/s, 128° | 540 W/m² | - |
| 1778006252 | 17.78° C | 37% | 1018.4 hPa | 0 mm | 1.79 m/s, 18° | 643 W/m² | - |
| 1778005951 | 17.78° C | 37% | 1018.5 hPa | 0 mm | 0.45 m/s, 60° | 856 W/m² | - |
| 1778005646 | 17.78° C | 37% | 1018.5 hPa | 0 mm | 1.34 m/s, 78° | 819 W/m² | - |
| 1778005343 | 17.22° C | 39% | 1018.6 hPa | 0 mm | 0.45 m/s, 78° | 802 W/m² | - |
| 1778005040 | 16.67° C | 40% | 1018.8 hPa | 0 mm | 0.89 m/s, 186° | 895 W/m² | - |
| 1778004737 | 17.22° C | 40% | 1018.9 hPa | 0 mm | 1.34 m/s, 99° | 552 W/m² | - |
| 1778004434 | 17.22° C | 39% | 1018.6 hPa | 0 mm | 0.89 m/s, 100° | 498 W/m² | - |
| 1778004130 | 17.22° C | 41% | 1018.9 hPa | 0 mm | 0.45 m/s, 98° | 864 W/m² | - |
| 1778003826 | 16.67° C | 45% | 1018.9 hPa | 0 mm | 1.34 m/s, 326° | 700 W/m² | - |
| 1778003523 | 16.67° C | 42% | 1019 hPa | 0 mm | 1.79 m/s, 310° | 420 W/m² | - |
| 1778003220 | 17.22° C | 44% | 1018.9 hPa | 0 mm | 0.89 m/s, 115° | 390 W/m² | - |
| 1778002916 | 17.22° C | 44% | 1019.1 hPa | 0 mm | 0.45 m/s, 107° | 688 W/m² | - |
| 1778002613 | 17.22° C | 41% | 1018.9 hPa | 0 mm | 0.89 m/s, 103° | 422 W/m² | - |
* Rain latest hour (hover to see other rain measurements)
** Current wind speed in m/s (hover to see current wind gust speed)